Bay City, TX

12:44 PM CST on February 25, 2017 (GMT -0600)
Bay City

Weather History for KBYY - February, 2013

Change the Weather History Date:

Thursday, February 28, 2013

  Actual Average (KLBX) Record (KLBX)
Temperature  
Mean Temperature 50 °F -  
Max Temperature 59 °F 64 °F 78 °F (2011)
Min Temperature 41 °F 48 °F 37 °F (2008)
Degree Days  
Heating Degree Days 15    
Moisture  
Dew Point 31 °F    
Average Humidity 51    
Maximum Humidity 76    
Minimum Humidity 33    
Precipitation  
Precipitation 0.00 in - - ()
Sea Level Pressure  
Sea Level Pressure 30.22 in    
Wind  
Wind Speed 6 mph (NNW)    
Max Wind Speed 16 mph    
Max Gust Speed 23 mph    
Visibility 10 miles    
Events      
Averages and records for this station are not official NWS values.
T = Trace of Precipitation, MM = Missing Value Source: NWS Daily Summary

Daily Weather History Graph

Daily Weather History Graph

Search for Another Location

Airport or City:

Trip Planner

Search our weather history database for the weather conditions in past years. The results will help you decide how hot, cold, wet, or windy it might be!

Date:

Astronomy

Feb. 28, 2013 Rise Set
Actual Time 6:49 AM CST 6:22 PM CST
Civil Twilight 6:25 AM CST 6:46 PM CST
Nautical Twilight 5:58 AM CST 7:14 PM CST
Astronomical Twilight 5:30 AM CST 7:41 PM CST
Moon 9:29 PM CST (2/28) 8:18 AM CST (2/28)
Length of Visible Light 12h 20m
Length of Day
11h 33m
Waning Gibbous, 90% of the Moon is Illuminated
Feb 28
Waning Gibbous
Mar 4
Last Quarter
Mar 11
New
Mar 19
First Quarter
Mar 27
Full

Hourly Weather History & Observations

Time (CST) Temp. Windchill Dew Point Humidity Pressure Visibility Wind Dir Wind Speed Gust Speed Precip Events Conditions
12:15 AM 46.9 °F - 30.2 °F 52% 30.19 in 10.0 mi Calm Calm - N/A   Clear
12:35 AM 42.8 °F 41.1 °F 32.0 °F 66% 30.19 in 10.0 mi NW 3.5 mph - N/A   Clear
12:55 AM 44.2 °F 42.7 °F 31.1 °F 60% 30.19 in 10.0 mi NNW 3.5 mph - N/A   Clear
1:15 AM 43.5 °F - 31.1 °F 62% 30.19 in 10.0 mi Calm Calm - N/A   Clear
1:35 AM 42.3 °F 40.5 °F 31.5 °F 66% 30.19 in 10.0 mi WNW 3.5 mph - N/A   Clear
1:55 AM 41.5 °F 37.8 °F 31.6 °F 68% 30.20 in 10.0 mi NW 5.8 mph - N/A   Clear
2:15 AM 41.2 °F 37.3 °F 31.3 °F 68% 30.20 in 10.0 mi NNW 5.8 mph - N/A   Clear
2:35 AM 41.5 °F 37.8 °F 30.6 °F 65% 30.20 in 10.0 mi NNW 5.8 mph - N/A   Clear
2:55 AM 43.2 °F 39.7 °F 29.7 °F 59% 30.20 in 10.0 mi NNW 5.8 mph - N/A   Clear
3:15 AM 44.4 °F 40.0 °F 29.3 °F 55% 30.20 in 10.0 mi NNW 8.1 mph - N/A   Clear
3:35 AM 45.3 °F 39.3 °F 29.3 °F 54% 30.19 in 10.0 mi North 12.7 mph 18.4 mph N/A   Clear
3:55 AM 45.5 °F 39.6 °F 29.3 °F 53% 30.18 in 10.0 mi North 12.7 mph - N/A   Clear
4:15 AM 45.1 °F 39.1 °F 29.3 °F 54% 30.19 in 10.0 mi North 12.7 mph 17.3 mph N/A   Clear
4:35 AM 45.5 °F 39.9 °F 29.3 °F 53% 30.20 in 10.0 mi North 11.5 mph 17.3 mph N/A   Clear
4:55 AM 45.1 °F 39.9 °F 29.3 °F 54% 30.20 in 10.0 mi North 10.4 mph - N/A   Clear
5:15 AM 44.6 °F 39.7 °F 29.3 °F 55% 30.21 in 10.0 mi North 9.2 mph - N/A   Clear
5:35 AM 44.1 °F 41.5 °F 29.3 °F 56% 30.22 in 10.0 mi North 4.6 mph - N/A   Clear
5:55 AM 43.2 °F 39.0 °F 29.3 °F 58% 30.23 in 10.0 mi North 6.9 mph - N/A   Clear
6:15 AM 43.3 °F 39.2 °F 29.8 °F 59% 30.24 in 10.0 mi NNW 6.9 mph - N/A   Clear
6:35 AM 44.1 °F 39.5 °F 30.0 °F 58% 30.25 in 10.0 mi NNW 8.1 mph - N/A   Clear
6:55 AM 44.1 °F 39.5 °F 30.2 °F 58% 30.25 in 10.0 mi North 8.1 mph - N/A   Clear
7:15 AM 43.7 °F 39.1 °F 30.2 °F 59% 30.26 in 10.0 mi North 8.1 mph - N/A   Clear
7:35 AM 43.7 °F 37.3 °F 30.2 °F 59% 30.26 in 10.0 mi North 12.7 mph - N/A   Clear
7:55 AM 45.0 °F 38.5 °F 30.7 °F 57% 30.26 in 10.0 mi North 13.8 mph - N/A   Clear
8:15 AM 46.9 °F - 30.9 °F 54% 30.26 in 10.0 mi North 13.8 mph 17.3 mph N/A   Clear
8:35 AM 46.8 °F - 30.9 °F 54% 30.27 in 10.0 mi North 12.7 mph - N/A   Clear
8:55 AM 47.5 °F - 31.3 °F 53% 30.28 in 10.0 mi North 12.7 mph 16.1 mph N/A   Clear
9:15 AM 48.6 °F - 31.1 °F 51% 30.28 in 10.0 mi North 12.7 mph 17.3 mph N/A   Clear
9:35 AM 50.2 °F - 31.1 °F 48% 30.28 in 10.0 mi North 12.7 mph - N/A   Clear
9:55 AM 51.3 °F - 30.2 °F 44% 30.28 in 10.0 mi North 15.0 mph 18.4 mph N/A   Clear
10:15 AM 51.3 °F - 29.8 °F 44% 30.28 in 10.0 mi North 11.5 mph 19.6 mph N/A   Clear
10:35 AM 51.8 °F - 28.4 °F 41% 30.28 in 10.0 mi North 13.8 mph 20.7 mph N/A   Clear
10:55 AM 52.2 °F - 28.2 °F 40% 30.28 in 10.0 mi North 16.1 mph 23.0 mph N/A   Clear
11:15 AM 52.5 °F - 27.5 °F 38% 30.28 in 10.0 mi North 11.5 mph - N/A   Clear
11:35 AM 52.5 °F - 27.9 °F 39% 30.27 in 10.0 mi NNW 12.7 mph 20.7 mph N/A   Clear
11:55 AM 52.5 °F - 28.6 °F 40% 30.27 in 10.0 mi NNW 12.7 mph 18.4 mph N/A   Clear
12:15 PM 53.4 °F - 28.0 °F 38% 30.27 in 10.0 mi NNW 12.7 mph - N/A   Clear
12:35 PM 54.3 °F - 27.5 °F 36% 30.25 in 10.0 mi NNW 10.4 mph 17.3 mph N/A   Clear
12:55 PM 54.7 °F - 26.8 °F 34% 30.24 in 10.0 mi NNW 10.4 mph 17.3 mph N/A   Clear
1:15 PM 55.4 °F - 27.1 °F 34% 30.23 in 10.0 mi North 9.2 mph - N/A   Clear
1:35 PM 55.8 °F - 27.5 °F 34% 30.22 in 10.0 mi NNW 4.6 mph 16.1 mph N/A   Clear
1:55 PM 56.1 °F - 27.0 °F 33% 30.21 in 10.0 mi NW 5.8 mph - N/A   Clear
2:15 PM 56.7 °F - 27.7 °F 33% 30.21 in 10.0 mi NNW 10.4 mph - N/A   Clear
2:35 PM 57.0 °F - 28.0 °F 33% 30.20 in 10.0 mi NW 5.8 mph - N/A   Clear
2:55 PM 58.1 °F - 28.8 °F 33% 30.20 in 10.0 mi North 12.7 mph - N/A   Clear
3:15 PM 59.0 °F - 30.2 °F 34% 30.20 in 10.0 mi NNW 10.4 mph 17.3 mph N/A   Clear
3:35 PM 58.3 °F - 28.8 °F 33% 30.19 in 10.0 mi NNW 8.1 mph - N/A   Clear
3:55 PM 58.6 °F - 29.3 °F 33% 30.18 in 10.0 mi NW 6.9 mph - N/A   Clear
4:15 PM 58.5 °F - 29.5 °F 33% 30.17 in 10.0 mi NW 8.1 mph - N/A   Clear
4:35 PM 57.6 °F - 29.7 °F 35% 30.18 in 10.0 mi NNW 10.4 mph - N/A   Clear
4:55 PM 57.4 °F - 30.4 °F 36% 30.18 in 10.0 mi NNW 8.1 mph - N/A   Clear
5:15 PM 57.7 °F - 30.9 °F 36% 30.19 in 10.0 mi NNW 8.1 mph - N/A   Clear
5:35 PM 57.0 °F - 31.1 °F 37% 30.19 in 10.0 mi NNW 6.9 mph - N/A   Clear
5:55 PM 56.3 °F - 31.5 °F 39% 30.19 in 10.0 mi NNW 4.6 mph - N/A   Clear
6:15 PM 55.0 °F - 31.8 °F 41% 30.20 in 10.0 mi Calm Calm - N/A   Clear
6:35 PM 53.8 °F - 31.8 °F 43% 30.20 in 10.0 mi NNW 3.5 mph - N/A   Clear
6:55 PM 52.9 °F - 32.2 °F 45% 30.21 in 10.0 mi Calm Calm - N/A   Clear
7:15 PM 51.1 °F - 33.6 °F 51% 30.21 in 10.0 mi Calm Calm - N/A   Clear
7:35 PM 51.8 °F - 33.1 °F 49% 30.21 in 10.0 mi Calm Calm - N/A   Clear
7:55 PM 51.8 °F - 32.7 °F 48% 30.21 in 10.0 mi Calm Calm - N/A   Clear
8:15 PM 51.1 °F - 34.0 °F 52% 30.22 in 10.0 mi West 3.5 mph - N/A   Clear
8:35 PM 48.2 °F - 35.6 °F 62% 30.23 in 10.0 mi West 3.5 mph - N/A   Clear
8:55 PM 48.9 °F - 34.7 °F 58% 30.23 in 10.0 mi West 3.5 mph - N/A   Clear
9:15 PM 48.6 °F - 34.2 °F 58% 30.24 in 10.0 mi Calm Calm - N/A   Clear
9:35 PM 47.8 °F - 34.5 °F 60% 30.24 in 10.0 mi Calm Calm - N/A   Clear
9:55 PM 45.9 °F - 33.8 °F 63% 30.24 in 10.0 mi Calm Calm - N/A   Clear
10:15 PM 44.4 °F - 34.5 °F 68% 30.24 in 10.0 mi Calm Calm - N/A   Clear
10:35 PM 42.8 °F - 34.0 °F 71% 30.24 in 10.0 mi Calm Calm - N/A   Clear
10:55 PM 42.4 °F - 34.0 °F 72% 30.24 in 10.0 mi Calm Calm - N/A   Clear
11:15 PM 43.2 °F - 33.8 °F 70% 30.24 in 10.0 mi Calm Calm - N/A   Clear
11:35 PM 41.4 °F 39.4 °F 33.4 °F 73% 30.22 in 10.0 mi NNE 3.5 mph - N/A   Clear
11:55 PM 41.0 °F 38.0 °F 33.8 °F 76% 30.22 in 10.0 mi NW 4.6 mph - N/A   Clear